Terminal Aerodrome Forecast
Issued by NWS

Home | Current Version | Previous Version | Text Only | Print | Product List | Glossary On
Versions: 1 2 3 4 5 6 7 8 9 10 11 12 13 14 15 16 17 18 19 20 21 22 23 24 25 26 27 28 29 30 31 32 33 34 35 36 37 38 39 40 41 42 43 44 45 46 47 48 49 50
000
FTUS45 KVEF 240220 AAB
TAFLAS
TAF AMD
KLAS 240220Z 2402/2424 23010G18KT P6SM BKN090 BKN110
     FM240240 31013G22KT P6SM VCSH SCT060 BKN090 BKN100
     FM240300 25012KT P6SM SCT090 BKN100
     FM241400 VRB05KT P6SM BKN100
     FM242000 20008KT P6SM BKN100=

USA.gov is the U.S. government's official web portal to all federal, state and local government web resources and services.